Flag for Canada Weather past 2 weeks in Peterborough, Ontario, Canada

Now
63 °F

Clear.


Feels Like: 63 °F
Forecast: 60 / 80 °F
Wind: 3 mph from Northeast

Location: Peterborough Airport

Current Time: Sep 4, 2015 at 6:50:47 AM

Latest Report: Sep 4, 2015 at 6:00 AM


Visibility: 9 mi

Pressure: 30.08 "Hg

Humidity: 94%

Dew point: 61 °F

Location of PeterboroughLocation

Historic Weather in Peterborough — Graph

°F

Peterborough temperature yesterday

Maximum temperature yesterday: 86 °F (at 2:46 PM)
Minimum temperature yesterday: 64 °F (at 3:00 AM)
Average temperature yesterday: 75 °F

Past Weeks' High & Low Weather Summary

 TemperatureHumidityPressure
High86 °F (Sep 2, 4:00 PM)100% (Aug 21, 12:00 AM)30.23 "Hg (Aug 21, 12:00 AM)
Low43 °F (Aug 28, 4:49 AM)47% (Aug 23, 5:00 PM)29.75 "Hg (Aug 24, 6:02 AM)
Average64 °F85%30.01 "Hg
* Reported Aug 20 5:00 AM — Sep 4 5:00 AM, Peterborough, Weather by CustomWeather, © 2015

Note: Actual official high and low records may vary slightly from our data, if they occured in-between our weather recording intervals... More about our weather records

Advertising

Peterborough weather history for previous 24 hours

 ConditionsComfort  
Time TempWeatherWind HumidityBarometerVisibility
5:00 AM
Fri, Sep 4
61 °FClear.2 mph94%30.06 "Hg9 mi
4:00 AM63 °FClear.2 mph94%30.05 "Hg9 mi
3:00 AM64 °FClear.3 mph94%30.04 "Hg9 mi
2:00 AM66 °FClear.3 mph94%30.03 "Hg9 mi
1:00 AM66 °FClear.2 mph94%30.01 "Hg9 mi
12:01 AM68 °FFog.3 mph94%29.99 "Hg3 mi
11:00 PM
Thu, Sep 3
68 °FFog.5 mph100%29.98 "Hg4 mi
10:04 PM70 °FFog.No wind100%29.98 "Hg2 mi
9:00 PM72 °FFog.2 mph94%29.97 "Hg4 mi
8:56 PM72 °FFog.2 mph94%29.97 "Hg6 mi
8:00 PM73 °FPartly sunny.5 mph89%29.96 "Hg8 mi
7:00 PM79 °FPartly sunny.3 mph70%29.95 "Hg9 mi
6:00 PM82 °FSunny.3 mph62%29.93 "Hg9 mi
5:00 PM84 °FPartly sunny.6 mph58%29.90 "Hg9 mi
4:00 PM82 °FPassing clouds.5 mph62%29.91 "Hg9 mi
3:00 PM84 °FScattered clouds.5 mph58%29.93 "Hg9 mi
2:46 PM86 °FScattered clouds.6 mph55%29.93 "Hg7 mi
2:00 PM84 °FPartly sunny.5 mph58%29.94 "Hg6 mi
1:00 PM84 °FSunny.7 mph58%29.94 "Hg6 mi
12:00 PM81 °FHaze.3 mph70%29.95 "Hg6 mi
11:00 AM77 °FScattered clouds.3 mph79%29.96 "Hg7 mi
10:58 AM77 °FScattered clouds.3 mph79%29.96 "Hg7 mi
10:00 AM75 °FSunny.3 mph83%29.96 "Hg7 mi
9:00 AM73 °FFog.3 mph89%29.95 "Hg3 mi
8:58 AM72 °FFog.3 mph94%29.95 "Hg3 mi
8:00 AM70 °FFog.3 mph100%29.95 "Hg1 mi
7:00 AM70 °FFog.5 mph100%29.93 "Hg1 mi
6:02 AM70 °FFog.2 mph100%29.92 "Hg2 mi
Weather by CustomWeather, © 2015

See weather overviewHow to use our weather pages